Year,Month,Day,Hour,Minute,Value (Times are PST for temperature in C)
2018,04,23,00,00,6.70
2018,04,23,00,01,6.60
2018,04,23,00,02,6.60
2018,04,23,00,03,6.60
2018,04,23,00,04,6.60
2018,04,23,00,05,6.60
2018,04,23,00,06,6.60
2018,04,23,00,07,6.60
2018,04,23,00,08,6.60
2018,04,23,00,09,6.60
2018,04,23,00,10,6.60
2018,04,23,00,11,6.60
2018,04,23,00,12,6.60
2018,04,23,00,13,6.60
2018,04,23,00,14,6.60
2018,04,23,00,15,6.60
2018,04,23,00,16,6.50
2018,04,23,00,17,6.40
2018,04,23,00,18,6.40
2018,04,23,00,19,6.40
2018,04,23,00,20,6.40
2018,04,23,00,21,6.40
2018,04,23,00,22,6.40
2018,04,23,00,23,6.40
2018,04,23,00,24,6.30
2018,04,23,00,25,6.30
2018,04,23,00,26,6.30
2018,04,23,00,27,6.30
2018,04,23,00,28,6.30
2018,04,23,00,29,6.30
2018,04,23,00,30,6.30
2018,04,23,00,31,6.30
2018,04,23,00,32,6.30
2018,04,23,00,33,6.30
2018,04,23,00,34,6.30
2018,04,23,00,35,6.30
2018,04,23,00,36,6.30
2018,04,23,00,37,6.30
2018,04,23,00,38,6.30
2018,04,23,00,39,6.30
2018,04,23,00,40,6.30
2018,04,23,00,41,6.30
2018,04,23,00,42,6.30
2018,04,23,00,43,6.30
2018,04,23,00,44,6.20
2018,04,23,00,45,6.20
2018,04,23,00,46,6.20
2018,04,23,00,47,6.20
2018,04,23,00,48,6.20
2018,04,23,00,49,6.20
2018,04,23,00,50,6.20
2018,04,23,00,51,6.10
2018,04,23,00,52,6.10
2018,04,23,00,53,6.10
2018,04,23,00,54,6.10
2018,04,23,00,55,6.10
2018,04,23,00,56,6.10
2018,04,23,00,57,6.00
2018,04,23,00,58,6.00
2018,04,23,00,59,6.00
2018,04,23,01,00,6.00
2018,04,23,01,01,5.90
2018,04,23,01,02,5.90
2018,04,23,01,03,5.90
2018,04,23,01,04,5.90
2018,04,23,01,05,5.80
2018,04,23,01,06,5.80
2018,04,23,01,07,5.80
2018,04,23,01,08,5.90
2018,04,23,01,09,5.90
2018,04,23,01,10,5.90
2018,04,23,01,11,5.90
2018,04,23,01,12,5.90
2018,04,23,01,13,5.90
2018,04,23,01,14,6.00
2018,04,23,01,15,6.00
2018,04,23,01,16,6.00
2018,04,23,01,17,6.00
2018,04,23,01,18,5.90
2018,04,23,01,19,5.90
2018,04,23,01,20,5.90
2018,04,23,01,21,5.80
2018,04,23,01,22,5.80
2018,04,23,01,23,5.70
2018,04,23,01,24,5.70
2018,04,23,01,25,5.70
2018,04,23,01,26,5.70
2018,04,23,01,27,5.70
2018,04,23,01,28,5.70
2018,04,23,01,29,5.70
2018,04,23,01,30,5.60
2018,04,23,01,31,5.60
2018,04,23,01,32,5.60
2018,04,23,01,33,5.50
2018,04,23,01,34,5.50
2018,04,23,01,35,5.50
2018,04,23,01,36,5.40
2018,04,23,01,37,5.40
2018,04,23,01,38,5.40
2018,04,23,01,39,5.40
2018,04,23,01,40,5.30
2018,04,23,01,41,5.30
2018,04,23,01,42,5.30
2018,04,23,01,43,5.30
2018,04,23,01,44,5.30
2018,04,23,01,45,5.30
2018,04,23,01,46,5.30
2018,04,23,01,47,5.30
2018,04,23,01,48,5.30
2018,04,23,01,49,5.30
2018,04,23,01,50,5.30
2018,04,23,01,51,5.30
2018,04,23,01,52,5.30
2018,04,23,01,53,5.30
2018,04,23,01,54,5.30
2018,04,23,01,55,5.30
2018,04,23,01,56,5.30
2018,04,23,01,57,5.20
2018,04,23,01,58,5.20
2018,04,23,01,59,5.20
2018,04,23,02,00,5.20
2018,04,23,02,01,5.20
2018,04,23,02,02,5.20
2018,04,23,02,03,5.10
2018,04,23,02,04,5.10
2018,04,23,02,05,5.10
2018,04,23,02,06,5.10
2018,04,23,02,07,5.10
2018,04,23,02,08,5.10
2018,04,23,02,09,5.10
2018,04,23,02,10,5.10
2018,04,23,02,11,5.10
2018,04,23,02,12,5.10
2018,04,23,02,13,5.10
2018,04,23,02,14,5.10
2018,04,23,02,15,5.10
2018,04,23,02,16,5.10
2018,04,23,02,17,5.10
2018,04,23,02,18,4.90
2018,04,23,02,19,4.90
2018,04,23,02,20,4.90
2018,04,23,02,21,4.90
2018,04,23,02,22,4.90
2018,04,23,02,23,4.90
2018,04,23,02,24,4.90
2018,04,23,02,25,4.90
2018,04,23,02,26,4.90
2018,04,23,02,27,4.90
2018,04,23,02,28,4.80
2018,04,23,02,29,4.80
2018,04,23,02,30,4.80
2018,04,23,02,31,4.80
2018,04,23,02,32,4.80
2018,04,23,02,33,4.80
2018,04,23,02,34,4.80
2018,04,23,02,35,4.70
2018,04,23,02,36,4.70
2018,04,23,02,37,4.70
2018,04,23,02,38,4.70
2018,04,23,02,39,4.70
2018,04,23,02,40,4.70
2018,04,23,02,41,4.70
2018,04,23,02,42,4.60
2018,04,23,02,43,4.60
2018,04,23,02,44,4.60
2018,04,23,02,45,4.60
2018,04,23,02,46,4.60
2018,04,23,02,47,4.60
2018,04,23,02,48,4.60
2018,04,23,02,49,4.60
2018,04,23,02,50,4.60
2018,04,23,02,51,4.60
2018,04,23,02,52,4.60
2018,04,23,02,53,4.60
2018,04,23,02,54,4.60
2018,04,23,02,55,4.60
2018,04,23,02,56,4.60
2018,04,23,02,57,4.60
2018,04,23,02,58,4.60
2018,04,23,02,59,4.60
2018,04,23,03,00,4.50
2018,04,23,03,01,4.50
2018,04,23,03,02,4.50
2018,04,23,03,03,4.50
2018,04,23,03,04,4.40
2018,04,23,03,05,4.40
2018,04,23,03,06,4.30
2018,04,23,03,07,4.30
2018,04,23,03,08,4.30
2018,04,23,03,09,4.30
2018,04,23,03,10,4.30
2018,04,23,03,11,4.30
2018,04,23,03,12,4.30
2018,04,23,03,13,4.30
2018,04,23,03,14,4.30
2018,04,23,03,15,4.30
2018,04,23,03,16,4.40
2018,04,23,03,17,4.40
2018,04,23,03,18,4.40
2018,04,23,03,19,4.50
2018,04,23,03,20,4.50
2018,04,23,03,21,4.50
2018,04,23,03,22,4.50
2018,04,23,03,23,4.50
2018,04,23,03,24,4.50
2018,04,23,03,25,4.50
2018,04,23,03,26,4.50
2018,04,23,03,27,4.50
2018,04,23,03,28,4.50
2018,04,23,03,29,4.60
2018,04,23,03,30,4.60
2018,04,23,03,31,4.60
2018,04,23,03,32,4.60
2018,04,23,03,33,4.60
2018,04,23,03,34,4.60
2018,04,23,03,35,4.70
2018,04,23,03,36,4.70
2018,04,23,03,37,4.70
2018,04,23,03,38,4.80
2018,04,23,03,39,4.80
2018,04,23,03,40,4.80
2018,04,23,03,41,4.80
2018,04,23,03,42,4.80
2018,04,23,03,43,4.80
2018,04,23,03,44,4.80
2018,04,23,03,45,4.80
2018,04,23,03,46,4.70
2018,04,23,03,47,4.70
2018,04,23,03,48,4.70
2018,04,23,03,49,4.60
2018,04,23,03,50,4.60
2018,04,23,03,51,4.60
2018,04,23,03,52,4.60
2018,04,23,03,53,4.60
2018,04,23,03,54,4.60
2018,04,23,03,55,4.60
2018,04,23,03,56,4.60
2018,04,23,03,57,4.60
2018,04,23,03,58,4.60
2018,04,23,03,59,4.60
2018,04,23,04,00,4.60
2018,04,23,04,01,4.60
2018,04,23,04,02,4.60
2018,04,23,04,03,4.50
2018,04,23,04,04,4.50
2018,04,23,04,05,4.50
2018,04,23,04,06,4.40
2018,04,23,04,07,4.40
2018,04,23,04,08,4.30
2018,04,23,04,09,4.30
2018,04,23,04,10,4.20
2018,04,23,04,11,4.20
2018,04,23,04,12,4.20
2018,04,23,04,13,4.20
2018,04,23,04,14,4.20
2018,04,23,04,15,4.10
2018,04,23,04,16,4.10
2018,04,23,04,17,4.10
2018,04,23,04,18,4.00
2018,04,23,04,19,4.00
2018,04,23,04,20,4.00
2018,04,23,04,21,4.00
2018,04,23,04,22,3.90
2018,04,23,04,23,3.90
2018,04,23,04,24,3.90
2018,04,23,04,25,3.80
2018,04,23,04,26,3.80
2018,04,23,04,27,3.80
2018,04,23,04,28,3.80
2018,04,23,04,29,3.80
2018,04,23,04,30,3.80
2018,04,23,04,31,3.80
2018,04,23,04,32,3.80
2018,04,23,04,33,3.70
2018,04,23,04,34,3.70
2018,04,23,04,35,3.70
2018,04,23,04,36,3.70
2018,04,23,04,37,3.70
2018,04,23,04,38,3.70
2018,04,23,04,39,3.60
2018,04,23,04,40,3.60
2018,04,23,04,41,3.60
2018,04,23,04,42,3.60
2018,04,23,04,43,3.60
2018,04,23,04,44,3.60
2018,04,23,04,45,3.60
2018,04,23,04,46,3.60
2018,04,23,04,47,3.60
2018,04,23,04,48,3.60
2018,04,23,04,49,3.60
2018,04,23,04,50,3.60
2018,04,23,04,51,3.50
2018,04,23,04,52,3.50
2018,04,23,04,53,3.50
2018,04,23,04,54,3.50
2018,04,23,04,55,3.50
2018,04,23,04,56,3.50
2018,04,23,04,57,3.50
2018,04,23,04,58,3.50
2018,04,23,04,59,3.50
2018,04,23,05,00,3.60
2018,04,23,05,01,3.60
2018,04,23,05,02,3.60
2018,04,23,05,03,3.60
2018,04,23,05,04,3.60
2018,04,23,05,05,3.60
2018,04,23,05,06,3.60
2018,04,23,05,07,3.60
2018,04,23,05,08,3.60
2018,04,23,05,09,3.50
2018,04,23,05,10,3.50
2018,04,23,05,11,3.50
2018,04,23,05,12,3.50
2018,04,23,05,13,3.50
2018,04,23,05,14,3.40
2018,04,23,05,15,3.40
2018,04,23,05,16,3.40
2018,04,23,05,17,3.40
2018,04,23,05,18,3.40
2018,04,23,05,19,3.40
2018,04,23,05,20,3.40
2018,04,23,05,21,3.40
2018,04,23,05,22,3.40
2018,04,23,05,23,3.50
2018,04,23,05,24,3.50
2018,04,23,05,25,3.60
2018,04,23,05,26,3.60
2018,04,23,05,27,3.70
2018,04,23,05,28,3.70
2018,04,23,05,29,3.80
2018,04,23,05,30,3.80
2018,04,23,05,31,3.90
2018,04,23,05,32,3.90
2018,04,23,05,33,4.00
2018,04,23,05,34,4.00
2018,04,23,05,35,4.10
2018,04,23,05,36,4.10
2018,04,23,05,37,4.20
2018,04,23,05,38,4.20
2018,04,23,05,39,4.20
2018,04,23,05,40,4.20
2018,04,23,05,41,4.20
2018,04,23,05,42,4.20
2018,04,23,05,43,4.20
2018,04,23,05,44,4.30
2018,04,23,05,45,4.30
2018,04,23,05,46,4.30
2018,04,23,05,47,4.30
2018,04,23,05,48,4.30
2018,04,23,05,49,4.30
2018,04,23,05,50,4.30
2018,04,23,05,51,4.30
2018,04,23,05,52,4.40
2018,04,23,05,53,4.40
2018,04,23,05,54,4.40
2018,04,23,05,55,4.40
2018,04,23,05,56,4.40
2018,04,23,05,57,4.40
2018,04,23,05,58,4.40
2018,04,23,05,59,4.40
2018,04,23,06,00,4.40
2018,04,23,06,01,4.40
2018,04,23,06,02,4.40
2018,04,23,06,03,4.30
2018,04,23,06,04,4.30
2018,04,23,06,05,4.30
2018,04,23,06,06,4.30
2018,04,23,06,07,4.40
2018,04,23,06,08,4.40
2018,04,23,06,09,4.40
2018,04,23,06,10,4.50
2018,04,23,06,11,4.50
2018,04,23,06,12,4.50
2018,04,23,06,13,4.60
2018,04,23,06,14,4.60
2018,04,23,06,15,4.70
2018,04,23,06,16,4.80
2018,04,23,06,17,4.80
2018,04,23,06,18,4.90
2018,04,23,06,19,5.00
2018,04,23,06,20,5.10
2018,04,23,06,21,5.10
2018,04,23,06,22,5.20
2018,04,23,06,23,5.30
2018,04,23,06,24,5.30
2018,04,23,06,25,5.40
2018,04,23,06,26,5.40
2018,04,23,06,27,5.40
2018,04,23,06,28,5.50
2018,04,23,06,29,5.50
2018,04,23,06,30,5.60
2018,04,23,06,31,5.60
2018,04,23,06,32,5.70
2018,04,23,06,33,5.70
2018,04,23,06,34,5.70
2018,04,23,06,35,5.70
2018,04,23,06,36,5.80
2018,04,23,06,37,5.90
2018,04,23,06,38,5.90
2018,04,23,06,39,6.00
2018,04,23,06,40,6.00
2018,04,23,06,41,6.10
2018,04,23,06,42,6.20
2018,04,23,06,43,6.20
2018,04,23,06,44,6.30
2018,04,23,06,45,6.30
2018,04,23,06,46,6.40
2018,04,23,06,47,6.40
2018,04,23,06,48,6.40
2018,04,23,06,49,6.60
2018,04,23,06,50,6.60
2018,04,23,06,51,6.60
2018,04,23,06,52,6.70
2018,04,23,06,53,6.80
2018,04,23,06,54,6.80
2018,04,23,06,55,6.90
2018,04,23,06,56,7.00
2018,04,23,06,57,7.00
2018,04,23,06,58,7.10
2018,04,23,06,59,7.20
2018,04,23,07,00,7.20
2018,04,23,07,01,7.30
2018,04,23,07,02,7.30
2018,04,23,07,03,7.40
2018,04,23,07,04,7.50
2018,04,23,07,05,7.60
2018,04,23,07,06,7.60
2018,04,23,07,07,7.70
2018,04,23,07,08,7.70
2018,04,23,07,09,7.80
2018,04,23,07,10,7.80
2018,04,23,07,11,7.90
2018,04,23,07,12,7.90
2018,04,23,07,13,8.00
2018,04,23,07,14,8.00
2018,04,23,07,15,8.00
2018,04,23,07,16,8.10
2018,04,23,07,17,8.10
2018,04,23,07,18,8.10
2018,04,23,07,19,8.20
2018,04,23,07,20,8.20
2018,04,23,07,21,8.20
2018,04,23,07,22,8.30
2018,04,23,07,23,8.30
2018,04,23,07,24,8.40
2018,04,23,07,25,8.40
2018,04,23,07,26,8.50
2018,04,23,07,27,8.50
2018,04,23,07,28,8.60
2018,04,23,07,29,8.60
2018,04,23,07,30,8.70
2018,04,23,07,31,8.70
2018,04,23,07,32,8.80
2018,04,23,07,33,8.90
2018,04,23,07,34,8.90
2018,04,23,07,35,8.90
2018,04,23,07,36,8.90
2018,04,23,07,37,9.00
2018,04,23,07,38,9.00
2018,04,23,07,39,9.00
2018,04,23,07,40,9.00
2018,04,23,07,41,9.10
2018,04,23,07,42,9.10
2018,04,23,07,43,9.20
2018,04,23,07,44,9.20
2018,04,23,07,45,9.20
2018,04,23,07,46,9.30
2018,04,23,07,47,9.30
2018,04,23,07,48,9.40
2018,04,23,07,49,9.40
2018,04,23,07,50,9.40
2018,04,23,07,51,9.50
2018,04,23,07,52,9.50
2018,04,23,07,53,9.50
2018,04,23,07,54,9.50
2018,04,23,07,55,9.50
2018,04,23,07,56,9.50
2018,04,23,07,57,9.50
2018,04,23,07,58,9.50
2018,04,23,07,59,9.50
2018,04,23,08,00,9.50
2018,04,23,08,01,9.50
2018,04,23,08,02,9.50
2018,04,23,08,03,9.50
2018,04,23,08,04,9.60
2018,04,23,08,05,9.60
2018,04,23,08,06,9.60
2018,04,23,08,07,9.50
2018,04,23,08,08,9.50
2018,04,23,08,09,9.50
2018,04,23,08,10,9.60
2018,04,23,08,11,9.60
2018,04,23,08,12,9.60
2018,04,23,08,13,9.60
2018,04,23,08,14,9.60
2018,04,23,08,15,9.60
2018,04,23,08,16,9.60
2018,04,23,08,17,9.60
2018,04,23,08,18,9.60
2018,04,23,08,19,9.60
2018,04,23,08,20,9.60
2018,04,23,08,21,9.60
2018,04,23,08,22,9.70
2018,04,23,08,23,9.70
2018,04,23,08,24,9.70
2018,04,23,08,25,9.70
2018,04,23,08,26,9.80
2018,04,23,08,27,9.80
2018,04,23,08,28,9.80
2018,04,23,08,29,9.80
2018,04,23,08,30,9.80
2018,04,23,08,31,9.80
2018,04,23,08,32,9.90
2018,04,23,08,33,9.90
2018,04,23,08,34,9.90
2018,04,23,08,35,9.90
2018,04,23,08,36,9.90
2018,04,23,08,37,9.90
2018,04,23,08,38,9.90
2018,04,23,08,39,9.90
2018,04,23,08,40,9.90
2018,04,23,08,41,9.90
2018,04,23,08,42,9.90
2018,04,23,08,43,9.90
2018,04,23,08,44,9.90
2018,04,23,08,45,10.00
2018,04,23,08,46,10.10
2018,04,23,08,47,10.10
2018,04,23,08,48,10.20
2018,04,23,08,49,10.30
2018,04,23,08,50,10.30
2018,04,23,08,51,10.40
2018,04,23,08,52,10.40
2018,04,23,08,53,10.40
2018,04,23,08,54,10.50
2018,04,23,08,55,10.60
2018,04,23,08,56,10.60
2018,04,23,08,57,10.60
2018,04,23,08,58,10.60
2018,04,23,08,59,10.60
2018,04,23,09,00,10.60
2018,04,23,09,01,10.60
2018,04,23,09,02,10.60
2018,04,23,09,03,10.50
2018,04,23,09,04,10.40
2018,04,23,09,05,10.40
2018,04,23,09,06,10.40
2018,04,23,09,07,10.40
2018,04,23,09,08,10.50
2018,04,23,09,09,10.60
2018,04,23,09,10,10.60
2018,04,23,09,11,10.70
2018,04,23,09,12,10.70
2018,04,23,09,13,10.80
2018,04,23,09,14,10.90
2018,04,23,09,15,10.90
2018,04,23,09,16,10.90
2018,04,23,09,17,10.90
2018,04,23,09,18,10.90
2018,04,23,09,19,10.90
2018,04,23,09,20,10.90
2018,04,23,09,21,10.90
2018,04,23,09,22,10.90
2018,04,23,09,23,10.90
2018,04,23,09,24,10.90
2018,04,23,09,25,10.90
2018,04,23,09,26,10.90
2018,04,23,09,27,10.90
2018,04,23,09,28,11.00
2018,04,23,09,29,11.10
2018,04,23,09,30,11.10
2018,04,23,09,31,11.10
2018,04,23,09,32,11.00
2018,04,23,09,33,10.90
2018,04,23,09,34,10.90
2018,04,23,09,35,10.90
2018,04,23,09,36,10.90
2018,04,23,09,37,10.90
2018,04,23,09,38,10.90
2018,04,23,09,39,10.90
2018,04,23,09,40,11.00
2018,04,23,09,41,11.10
2018,04,23,09,42,11.10
2018,04,23,09,43,11.10
2018,04,23,09,44,11.10
2018,04,23,09,45,11.10
2018,04,23,09,46,11.10
2018,04,23,09,47,11.10
2018,04,23,09,48,11.20
2018,04,23,09,49,11.20
2018,04,23,09,50,11.20
2018,04,23,09,51,11.20
2018,04,23,09,52,11.20
2018,04,23,09,53,11.10
2018,04,23,09,54,11.10
2018,04,23,09,55,11.20
2018,04,23,09,56,11.20
2018,04,23,09,57,11.30
2018,04,23,09,58,11.30
2018,04,23,09,59,11.40
2018,04,23,10,00,11.40
2018,04,23,10,01,11.40
2018,04,23,10,02,11.60
2018,04,23,10,03,11.60
2018,04,23,10,04,11.60
2018,04,23,10,05,11.60
2018,04,23,10,06,11.60
2018,04,23,10,07,11.70
2018,04,23,10,08,11.80
2018,04,23,10,09,11.80
2018,04,23,10,10,11.80
2018,04,23,10,11,11.80
2018,04,23,10,12,11.90
2018,04,23,10,13,11.90
2018,04,23,10,14,12.00
2018,04,23,10,15,12.00
2018,04,23,10,16,12.00
2018,04,23,10,17,12.00
2018,04,23,10,18,12.00
2018,04,23,10,19,11.90
2018,04,23,10,20,11.90
2018,04,23,10,21,11.90
2018,04,23,10,22,11.90
2018,04,23,10,23,12.00
2018,04,23,10,24,12.00
2018,04,23,10,25,12.00
2018,04,23,10,26,12.00
2018,04,23,10,27,12.10
2018,04,23,10,28,12.10
2018,04,23,10,29,12.20
2018,04,23,10,30,12.10
2018,04,23,10,31,12.10
2018,04,23,10,32,12.10
2018,04,23,10,33,12.10
2018,04,23,10,34,12.10
2018,04,23,10,35,12.10
2018,04,23,10,36,12.20
2018,04,23,10,37,12.20
2018,04,23,10,38,12.30
2018,04,23,10,39,12.30
2018,04,23,10,40,12.30
2018,04,23,10,41,12.30
2018,04,23,10,42,12.40
2018,04,23,10,43,12.30
2018,04,23,10,44,12.40
2018,04,23,10,45,12.40
2018,04,23,10,46,12.40
2018,04,23,10,47,12.30
2018,04,23,10,48,12.30
2018,04,23,10,49,12.30
2018,04,23,10,50,12.30
2018,04,23,10,51,12.30
2018,04,23,10,52,12.30
2018,04,23,10,53,12.40
2018,04,23,10,54,12.40
2018,04,23,10,55,12.40
2018,04,23,10,56,12.40
2018,04,23,10,57,12.50
2018,04,23,10,58,12.50
2018,04,23,10,59,12.50
2018,04,23,11,00,12.60
2018,04,23,11,01,12.60
2018,04,23,11,02,12.60
2018,04,23,11,03,12.70
2018,04,23,11,04,12.70
2018,04,23,11,05,12.80
2018,04,23,11,06,12.80
2018,04,23,11,07,12.80
2018,04,23,11,08,12.80
2018,04,23,11,09,12.80
2018,04,23,11,10,12.80
2018,04,23,11,11,12.80
2018,04,23,11,12,12.80
2018,04,23,11,13,12.70
2018,04,23,11,14,12.70
2018,04,23,11,15,12.80
2018,04,23,11,16,12.80
2018,04,23,11,17,12.80
2018,04,23,11,18,12.90
2018,04,23,11,19,12.90
2018,04,23,11,20,13.00
2018,04,23,11,21,13.00
2018,04,23,11,22,13.00
2018,04,23,11,23,13.10
2018,04,23,11,24,13.10
2018,04,23,11,25,13.10
2018,04,23,11,26,13.10
2018,04,23,11,27,13.20
2018,04,23,11,28,13.20
2018,04,23,11,29,13.30
2018,04,23,11,30,13.20
2018,04,23,11,31,13.20
2018,04,23,11,32,13.10
2018,04,23,11,33,13.10
2018,04,23,11,34,13.10
2018,04,23,11,35,13.10
2018,04,23,11,36,13.10
2018,04,23,11,37,13.20
2018,04,23,11,38,13.20
2018,04,23,11,39,13.20
2018,04,23,11,40,13.20
2018,04,23,11,41,13.30
2018,04,23,11,42,13.30
2018,04,23,11,43,13.30
2018,04,23,11,44,13.30
2018,04,23,11,45,13.30
2018,04,23,11,46,13.40
2018,04,23,11,47,13.40
2018,04,23,11,48,13.50
2018,04,23,11,49,13.50
2018,04,23,11,50,13.60
2018,04,23,11,51,13.70
2018,04,23,11,52,13.70
2018,04,23,11,53,13.80
2018,04,23,11,54,13.80
2018,04,23,11,55,13.90
2018,04,23,11,56,13.90
2018,04,23,11,57,13.90
2018,04,23,11,58,14.00
2018,04,23,11,59,14.00
2018,04,23,12,00,14.00
2018,04,23,12,01,14.00
2018,04,23,12,02,14.00
2018,04,23,12,03,14.00
2018,04,23,12,04,14.10
2018,04,23,12,05,14.10
2018,04,23,12,06,14.10
2018,04,23,12,07,14.10
2018,04,23,12,08,14.10
2018,04,23,12,09,14.20
2018,04,23,12,10,14.20
2018,04,23,12,11,14.20
2018,04,23,12,12,14.20
2018,04,23,12,13,14.20
2018,04,23,12,14,14.20
2018,04,23,12,15,14.10
2018,04,23,12,16,14.10
2018,04,23,12,17,14.10
2018,04,23,12,18,14.10
2018,04,23,12,19,14.20
2018,04,23,12,20,14.20
2018,04,23,12,21,14.20
2018,04,23,12,22,14.20
2018,04,23,12,23,14.20
2018,04,23,12,24,14.20
2018,04,23,12,25,14.20
2018,04,23,12,26,14.20
2018,04,23,12,27,14.10
2018,04,23,12,28,14.10
2018,04,23,12,29,14.10
2018,04,23,12,30,14.10
2018,04,23,12,31,14.20
2018,04,23,12,32,14.20
2018,04,23,12,33,14.20
2018,04,23,12,34,14.20
2018,04,23,12,35,14.20
2018,04,23,12,36,14.20
2018,04,23,12,37,14.20
2018,04,23,12,38,14.20
2018,04,23,12,39,14.20
2018,04,23,12,40,14.20
2018,04,23,12,41,14.20
2018,04,23,12,42,14.30
2018,04,23,12,43,14.30
2018,04,23,12,44,14.30
2018,04,23,12,45,14.40
2018,04,23,12,46,14.40
2018,04,23,12,47,14.40
2018,04,23,12,48,14.50
2018,04,23,12,49,14.60
2018,04,23,12,50,14.60
2018,04,23,12,51,14.80
2018,04,23,12,52,14.80
2018,04,23,12,53,14.80
2018,04,23,12,54,14.80
2018,04,23,12,55,14.80
2018,04,23,12,56,14.80
2018,04,23,12,57,14.80
2018,04,23,12,58,14.80
2018,04,23,12,59,14.70
2018,04,23,13,00,14.70
2018,04,23,13,01,14.70
2018,04,23,13,02,14.70
2018,04,23,13,03,14.80
2018,04,23,13,04,14.80
2018,04,23,13,05,14.80
2018,04,23,13,06,14.80
2018,04,23,13,07,14.80
2018,04,23,13,08,14.80
2018,04,23,13,09,14.80
2018,04,23,13,10,14.80
2018,04,23,13,11,14.80
2018,04,23,13,12,14.80
2018,04,23,13,13,14.90
2018,04,23,13,14,15.00
2018,04,23,13,15,15.10
2018,04,23,13,16,15.20
2018,04,23,13,17,15.10
2018,04,23,13,18,15.10
2018,04,23,13,19,15.00
2018,04,23,13,20,14.90
2018,04,23,13,21,14.90
2018,04,23,13,22,14.80
2018,04,23,13,23,14.80
2018,04,23,13,24,14.90
2018,04,23,13,25,15.00
2018,04,23,13,26,15.00
2018,04,23,13,27,15.10
2018,04,23,13,28,15.10
2018,04,23,13,29,15.20
2018,04,23,13,30,15.10
2018,04,23,13,31,15.00
2018,04,23,13,32,15.00
2018,04,23,13,33,15.00
2018,04,23,13,34,15.00
2018,04,23,13,35,15.10
2018,04,23,13,36,15.10
2018,04,23,13,37,15.20
2018,04,23,13,38,15.30
2018,04,23,13,39,15.30
2018,04,23,13,40,15.40
2018,04,23,13,41,15.40
2018,04,23,13,42,15.40
2018,04,23,13,43,15.50
2018,04,23,13,44,15.50
2018,04,23,13,45,15.60
2018,04,23,13,46,15.50
2018,04,23,13,47,15.60
2018,04,23,13,48,15.60
2018,04,23,13,49,15.60
2018,04,23,13,50,15.50
2018,04,23,13,51,15.50
2018,04,23,13,52,15.50
2018,04,23,13,53,15.50
2018,04,23,13,54,15.50
2018,04,23,13,55,15.50
2018,04,23,13,56,15.60
2018,04,23,13,57,15.70
2018,04,23,13,58,15.70
2018,04,23,13,59,15.80
2018,04,23,14,00,15.80
2018,04,23,14,01,15.80
2018,04,23,14,02,15.80
2018,04,23,14,03,15.90
2018,04,23,14,04,15.90
2018,04,23,14,05,16.00
2018,04,23,14,06,16.10
2018,04,23,14,07,16.10
2018,04,23,14,08,16.10
2018,04,23,14,09,16.00
2018,04,23,14,10,15.90
2018,04,23,14,11,15.90
2018,04,23,14,12,15.90
2018,04,23,14,13,16.00
2018,04,23,14,14,16.10
2018,04,23,14,15,16.00
2018,04,23,14,16,16.00
2018,04,23,14,17,16.10
2018,04,23,14,18,16.10
2018,04,23,14,19,16.10
2018,04,23,14,20,16.10
2018,04,23,14,21,16.20
2018,04,23,14,22,16.20
2018,04,23,14,23,16.30
2018,04,23,14,24,16.30
2018,04,23,14,25,16.20
2018,04,23,14,26,16.20
2018,04,23,14,27,16.20
2018,04,23,14,28,16.20
2018,04,23,14,29,16.20
2018,04,23,14,30,16.30
2018,04,23,14,31,16.40
2018,04,23,14,32,16.40
2018,04,23,14,33,16.40
2018,04,23,14,34,16.40
2018,04,23,14,35,16.40
2018,04,23,14,36,16.40
2018,04,23,14,37,16.40
2018,04,23,14,38,16.40
2018,04,23,14,39,16.40
2018,04,23,14,40,16.40
2018,04,23,14,41,16.40
2018,04,23,14,42,16.40
2018,04,23,14,43,16.40
2018,04,23,14,44,16.50
2018,04,23,14,45,16.60
2018,04,23,14,46,16.60
2018,04,23,14,47,16.70
2018,04,23,14,48,16.70
2018,04,23,14,49,16.70
2018,04,23,14,50,16.70
2018,04,23,14,51,16.70
2018,04,23,14,52,16.70
2018,04,23,14,53,16.70
2018,04,23,14,54,16.60
2018,04,23,14,55,16.60
2018,04,23,14,56,16.60
2018,04,23,14,57,16.60
2018,04,23,14,58,16.60
2018,04,23,14,59,16.60
2018,04,23,15,00,16.70
2018,04,23,15,01,16.70
2018,04,23,15,02,16.70
2018,04,23,15,03,16.70
2018,04,23,15,04,16.80
2018,04,23,15,05,16.80
2018,04,23,15,06,16.80
2018,04,23,15,07,16.70
2018,04,23,15,08,16.70
2018,04,23,15,09,16.70
2018,04,23,15,10,16.70
2018,04,23,15,11,16.70
2018,04,23,15,12,16.70
2018,04,23,15,13,16.70
2018,04,23,15,14,16.70
2018,04,23,15,15,16.70
2018,04,23,15,16,16.70
2018,04,23,15,17,16.80
2018,04,23,15,18,16.80
2018,04,23,15,19,16.80
2018,04,23,15,20,16.70
2018,04,23,15,21,16.70
2018,04,23,15,22,16.70
2018,04,23,15,23,16.80
2018,04,23,15,24,16.80
2018,04,23,15,25,16.70
2018,04,23,15,26,16.70
2018,04,23,15,27,16.80
2018,04,23,15,28,16.80
2018,04,23,15,29,16.80
2018,04,23,15,30,16.80
2018,04,23,15,31,16.90
2018,04,23,15,32,16.90
2018,04,23,15,33,17.00
2018,04,23,15,34,17.00
2018,04,23,15,35,17.10
2018,04,23,15,36,17.10
2018,04,23,15,37,17.10
2018,04,23,15,38,17.10
2018,04,23,15,39,17.00
2018,04,23,15,40,17.00
2018,04,23,15,41,17.00
2018,04,23,15,42,17.00
2018,04,23,15,43,17.00
2018,04,23,15,44,17.00
2018,04,23,15,45,17.00
2018,04,23,15,46,17.00
2018,04,23,15,47,17.00
2018,04,23,15,48,17.00
2018,04,23,15,49,17.00
2018,04,23,15,50,17.00
2018,04,23,15,51,17.00
2018,04,23,15,52,17.10
2018,04,23,15,53,17.20
2018,04,23,15,54,17.20
2018,04,23,15,55,17.20
2018,04,23,15,56,17.10
2018,04,23,15,57,17.10
2018,04,23,15,58,17.10
2018,04,23,15,59,17.00
2018,04,23,16,00,17.00
2018,04,23,16,01,17.00
2018,04,23,16,02,17.10
2018,04,23,16,03,17.20
2018,04,23,16,04,17.20
2018,04,23,16,05,17.30
2018,04,23,16,06,17.30
2018,04,23,16,07,17.30
2018,04,23,16,08,17.40
2018,04,23,16,09,17.40
2018,04,23,16,10,17.50
2018,04,23,16,11,17.50
2018,04,23,16,12,17.60
2018,04,23,16,13,17.70
2018,04,23,16,14,17.60
2018,04,23,16,15,17.60
2018,04,23,16,16,17.50
2018,04,23,16,17,17.40
2018,04,23,16,18,17.40
2018,04,23,16,19,17.40
2018,04,23,16,20,17.40
2018,04,23,16,21,17.40
2018,04,23,16,22,17.40
2018,04,23,16,23,17.50
2018,04,23,16,24,17.50
2018,04,23,16,25,17.50
2018,04,23,16,26,17.60
2018,04,23,16,27,17.60
2018,04,23,16,28,17.60
2018,04,23,16,29,17.60
2018,04,23,16,30,17.50
2018,04,23,16,31,17.50
2018,04,23,16,32,17.50
2018,04,23,16,33,17.50
2018,04,23,16,34,17.50
2018,04,23,16,35,17.60
2018,04,23,16,36,17.60
2018,04,23,16,37,17.70
2018,04,23,16,38,17.70
2018,04,23,16,39,17.70
2018,04,23,16,40,17.70
2018,04,23,16,41,17.70
2018,04,23,16,42,17.70
2018,04,23,16,43,17.70
2018,04,23,16,44,17.70
2018,04,23,16,45,17.70
2018,04,23,16,46,17.70
2018,04,23,16,47,17.70
2018,04,23,16,48,17.70
2018,04,23,16,49,17.80
2018,04,23,16,50,17.80
2018,04,23,16,51,17.80
2018,04,23,16,52,17.80
2018,04,23,16,53,17.70
2018,04,23,16,54,17.70
2018,04,23,16,55,17.60
2018,04,23,16,56,17.50
2018,04,23,16,57,17.50
2018,04,23,16,58,17.50
2018,04,23,16,59,17.40
2018,04,23,17,00,17.50
2018,04,23,17,01,17.50
2018,04,23,17,02,17.50
2018,04,23,17,03,17.50
2018,04,23,17,04,17.50
2018,04,23,17,05,17.40
2018,04,23,17,06,17.40
2018,04,23,17,07,17.40
2018,04,23,17,08,17.50
2018,04,23,17,09,17.50
2018,04,23,17,10,17.50
2018,04,23,17,11,17.60
2018,04,23,17,12,17.60
2018,04,23,17,13,17.70
2018,04,23,17,14,17.70
2018,04,23,17,15,17.80
2018,04,23,17,16,17.90
2018,04,23,17,17,17.90
2018,04,23,17,18,17.90
2018,04,23,17,19,17.80
2018,04,23,17,20,17.70
2018,04,23,17,21,17.70
2018,04,23,17,22,17.60
2018,04,23,17,23,17.50
2018,04,23,17,24,17.50
2018,04,23,17,25,17.40
2018,04,23,17,26,17.40
2018,04,23,17,27,17.40
2018,04,23,17,28,17.40
2018,04,23,17,29,17.40
2018,04,23,17,30,17.40
2018,04,23,17,31,17.50
2018,04,23,17,32,17.50
2018,04,23,17,33,17.50
2018,04,23,17,34,17.50
2018,04,23,17,35,17.60
2018,04,23,17,36,17.60
2018,04,23,17,37,17.60
2018,04,23,17,38,17.60
2018,04,23,17,39,17.70
2018,04,23,17,40,17.70
2018,04,23,17,41,17.70
2018,04,23,17,42,17.70